User: anonymous
Location: Enid
(36.3960°N, 97.8780°W)
Time: 07:17:32
(UTC-05:00)
Language:

HST - Orbit

View from above orbital plane
View from above orbital plane
View from above satellite
View from above satellite

Ground track
Ground track

The orbit data is extracted from the following two-line orbital elements,

1 20580U 90037B   14110.32296487  .00005394  00000-0  35695-3 0  4854
2 20580 028.4706 057.4672 0003272 029.3155 104.6742 15.05206895115994
Epoch (UTC): 20 April 2014 07:45:04
Eccentricity: 0.0003272
inclination: 28.4706°
perigee height: 548 km
apogee height: 553 km
right ascension of ascending node: 57.4672°
argument of perigee: 29.3155°
revolutions per day: 15.05206895
mean anomaly at epoch: 104.6742°
orbit number at epoch: 11599

The dashed part of the orbit path shows where the satellite is in the earth's shadow,  

DLR